Location: Dittelbrunn
(50.0738°N, 10.2196°E)
Time: 11:41:30
(UTC+00:00)

Cosmos 1707 - Pass Details

Date: 18 September 2020
Orbit: 515 x 530 km, 82.5° (Epoch: 23 October)

Event Time Altitude Azimuth Distance (km) Brightness Sun altitude
Rises 19:15:14 0° 342° (NNW) 2,655 7.0 -17.9°
Reaches altitude 10° 19:17:29 10° 334° (NNW) 1,759 6.1 -18.2°
Maximum altitude 19:21:01 35° 268° (W) 845 4.3 -18.7°
Drops below altitude 10° 19:24:32 10° 201° (SSW) 1,741 5.3 -19.2°
Enters shadow 19:25:48 - 195° (SSW) 2,241 5.8 -19.4°
